Location: Gorze? G�rny
(49.8500°N, 19.5000°E)
Time: 12:59:16
(UTC+00:00)

Cosmos 2297 - Pass Details

Date: 13 May 2021
Orbit: 837 x 857 km, 71.0° (Epoch: 22 June)

Event Time Altitude Azimuth Distance (km) Brightness Sun altitude
Exits shadow 20:54:20 22° 193° (SSW) 1,789 5.0 -17.8°
Maximum altitude 20:58:06 70° 115° (ESE) 904 3.6 -18.0°
Drops below altitude 10° 21:03:45 10° 33° (NNE) 2,475 6.6 -18.4°
Sets 21:06:12 0° 31° (NNE) 3,411 7.4 -18.6°
